Hourly Data Report for May 08, 2021

DRYDEN REGIONAL
ONTARIO
Current Station Operator: NAVCAN

49°49'39.000" N
92°44'39.000" W
412.70 m
6032125
71527
YHD

Download Data

Hourly Data (May 2021)
Hourly Data Report for May 8, 2021
TIME
LST
Temp Definition
°C
Dew Point Definition
°C
Rel Hum Definition
%
Precip. Amount Definition
mm

Wind Dir Definition
10's deg

Wind Spd Definition
km/h
Visibility Definition
km
Stn Press Definition
kPa
Hmdx Definition


Wind Chill Definition


Weather Definition


00:00 2.3 -3.0 68 0.0 3 11 16.1 96.98     LegendNANA
01:00 1.6 -2.5 74 0.0 3 9 16.1 97.02     LegendNANA
02:00 0.7 -2.5 79 0.0 3 11 16.1 97.04     LegendNANA
03:00 -0.1 -2.6 83 0.0 2 9 16.1 97.06   -3 LegendNANA
04:00 -1.0 -3.4 84 0.0 3 9 16.1 97.07   -4 LegendNANA
05:00 -1.6 -3.3 88 0.0 3 9 16.1 97.08   -5 LegendNANA
06:00 -0.6 -3.6 80 0.0 4 13 16.1 97.13   -5 LegendNANA
07:00 0.7 -3.8 72 0.0 2 13 16.1 97.14     LegendNANA
08:00 2.2 -3.2 67 0.0 LegendMM 4 16.1 97.13     LegendNANA
09:00 3.9 -5.1 52 0.0 35 13 16.1 97.10     LegendNANA
10:00 5.9 -4.6 47 0.0 LegendMM 13 16.1 97.08     LegendNANA
11:00 6.6 -6.2 40 0.0 LegendMM 11 16.1 97.06     LegendNANA
12:00 7.5 -6.3 37 0.0 4 13 16.1 97.02     LegendNANA
13:00 8.4 -7.0 33 0.0 34 9 16.1 96.98     LegendNANA
14:00 8.5 -6.5 34 0.0 6 15 16.1 96.95     LegendNANA
15:00 9.5 -7.1 30 0.0 36 9 16.1 96.94     LegendNANA
16:00 9.6 -8.1 28 0.0 35 8 16.1 96.88     LegendNANA
17:00 9.6 -7.1 30 0.0 3 17 16.1 96.87     LegendNANA
18:00 9.4 -6.9 31 0.0 36 13 16.1 96.88     LegendNANA
19:00 8.1 -6.5 35 0.0 2 11 16.1 96.92     LegendNANA
20:00 6.5 -5.9 41 0.0 3 13 16.1 96.98     LegendNANA
21:00 5.1 -6.2 44 0.0 4 15 16.1 97.08     LegendNANA
22:00 4.0 -4.0 56 0.0 5 26 16.1 97.12     LegendNANA
23:00 2.5 -3.2 66 0.0 5 13 16.1 97.14     LegendNANA

Notes on Data Quality.

Legend

  • E = Estimated
  • M = Missing
  • NA = Not Available*
  • [empty] = Indicates an unobserved value
Date modified: